TAURUS DEB

基本信息
目录编号:
26035
目录名称:
TAURUS DEB
国际标识:
1999-070D
轨道中心:
EARTH
物体状态:
在轨
发射日期:
1999-12-21 UTC
轨道信息
数据来源: 国际轨道数据
星历时间: 2026-07-13T19:53:53+0800
半长轴: 7055.148km
偏心率: 0.0026289
轨道倾角: 98.384°
近地点辐角: 59.696°
升交点赤经: 344.638°
平近点角: 29.485°
近地点: 658.463km
远地点: 695.559km
周期: 98.292分钟
每日圈数: 14.650203
详细信息
发射场:
AFWTR
轨道高度:
LEO
数据来源:
AOE Integration Group
参考系:
TEME
时间系统:
UTC
历元类型:
SGP4
2D轨道图
3D轨道图
轨道高度分析图
轨道倾角分析图
轨道综合分析图
查看轨道综合分析图